Regional Weather Roundup
Issued by NWS

Home | Current Version | Previous Version | Text Only | Print | Product List | Glossary Off
Versions: 1 2 3 4 5 6 7 8 9 10 11 12 13 14 15 16 17 18 19 20 21 22 23 24 25 26 27 28 29 30 31 32 33 34 35 36 37 38 39 40 41 42 43 44 45 46 47 48 49 50

000
ASUS43 KLOT 011710
RWRIL

ILLINOIS REGIONAL WEATHER ROUNDUP
NATIONAL WEATHER SERVICE CHICAGO/ROMEOVILLE IL
1100 AM CST SUN FEB 01 2015

NOTE: "FAIR" INDICATES FEW OR NO CLOUDS BELOW 12,000 FEET WITH NO
SIGNIFICANT WEATHER AND/OR OBSTRUCTIONS TO VISIBILITY.

* THESE STATIONS ARE NOT UNDER NWS QUALITY CONTROL. THEY ALSO MAY NOT
  REPORT WEATHER SUCH AS PRECIPITATION OR FOG.

ILZ001-002-007-009-015-016-024-011800-
NORTHWEST ILLINOIS

CITY           SKY/WX    TMP DP  RH WIND       PRES   REMARKS
MOLINE         SNOW      28  25  88 NE23      29.79S VSB 1/2 WCI  14
STERLING*        N/A    N/A N/A N/A MISG        N/A
SAVANNA*       LGT SNOW  26  22  86 NE18G25   29.85F VSB 1   WCI  12
$$

ILZ003-004-008-010-011-017-018-011800-
NORTH CENTRAL ILLINOIS

CITY           SKY/WX    TMP DP  RH WIND       PRES   REMARKS
ROCKFORD       LGT SNOW  25  20  81 NE22G36   29.90F VSB 1   WCI  10
FREEPORT*      LGT SNOW  23  20  89 NE21G31   29.91F WCI   8
ROCHELLE*      CLOUDY    27  25  91 NE21G28   29.84F WCI  14
DE KALB*       LGT SNOW  26  24  90 NE24      29.83F WCI  11
PERU*          CLOUDY    33  33 100 E10       29.79F FOG     WCI  25
$$

ILZ005-006-012>014-019>023-011800-
NORTHEAST ILLINOIS

CITY           SKY/WX    TMP DP  RH WIND       PRES   REMARKS
CHICAGO-OHARE  SNOW      28  27  96 NE21      29.86F VSB 1/2 WCI  15
CHICAGO-MIDWAY SNOW      31  29  92 NE21G29   29.85F VSB 1/2 WCI  18
AURORA         LGT SNOW  31  26  82 NE24      29.81F VSB 3/4 WCI  17
LANSING*       SNOW      32  32  99 CALM      29.83F VSB 1/4
JOLIET*        LGT SNOW  32  31  96 NE3       29.80F
WAUKEGAN       SNOW      24  22  91 NE20G36   29.92F VSB 1/4 WCI  10
DUPAGE AIRPORT SNOW      29  27  92 NE17      29.83F VSB 1/2 WCI  17
KANKAKEE*      LGT SNOW  33  32  97 E10       29.79F WCI  25
WHEELING       SNOW      27  25  92 NE16G26   29.90F VSB 1/4 WCI  15
MORRIS*        LGT SNOW  32  32 100 E7        29.78F WCI  26
ROMEOVILLE*    LGT SNOW  32  32 100 NE9       29.80F WCI  24
NORTHERLY ISL    N/A     29  29 100 NE29        N/A  WCI  14
$$

LMZ740>746-011800-
SOUTHERN LAKE MICHIGAN

STATION/POSITION SKY/WX   TEMP    WIND        PRES    VSBY  WAVE
                          AIR SEA DIR/SP/G                  HT/PER
                          (F)     (DEG/KT/KT) (MB)    (MI)  (FT/S)
WAUKEGAN HARBOR            26      50/ 31/ 38   N/A
HARRISON CRIB              29      70/ 30/ 37   N/A
BURNHAM HARBOR             29      70/ 24/ 25   N/A
CALUMET HARBOR             30      60/ 18/ 26   N/A
MICHIGAN CITY              29      50/ 15/ 19   N/A
$$

ILZ025>027-034>036-040-047-049-050-058-095>099-011800-
WEST-CENTRAL ILLINOIS

CITY           SKY/WX    TMP DP  RH WIND       PRES   REMARKS
QUINCY         SNOW      34  32  93 CALM      29.70F VSB 1/2
GALESBURG*     LGT SNOW  33  32  96 NE7       29.74S WCI  27
MACOMB*        LGT SNOW  33  33 100 NE5       29.75S WCI  28
JACKSONVILLE*  SNOW      34  33  95 CALM      29.71S VSB 1/2
PITTSFIELD*    SNOW      34  33  96 CALM      29.71F VSB 1/4
$$

ILZ028>032-037-038-041>044-048-051>054-059>061-011800-
CENTRAL ILLINOIS

CITY           SKY/WX    TMP DP  RH WIND       PRES   REMARKS
PONTIAC        LGT SNOW  34  33  98 E13       29.76F WCI  25
BLOOMINGTON    LGT SNOW  33  32  96 SE8       29.73F FOG     WCI  26
DECATUR        CLOUDY    34  32  92 SE9       29.71F FOG     WCI  27
PEORIA         SNOW      34  32  92 E7        29.73F VSB 1/2 WCI  28
LACON*         LGT SNOW  33  31  94 E10       29.75F WCI  24
LINCOLN*       LGT SNOW  35  34  96 E5        29.72F WCI  30
SPRINGFIELD    LGT SNOW  34  32  92 CALM      29.71F FOG
TAYLORVILLE    LGT RAIN  32  32 100 SE7       29.70F WCI  26
$$

ILZ033-039-045-046-055>057-062-063-011800-
EAST-CENTRAL ILLINOIS

CITY           SKY/WX    TMP DP  RH WIND       PRES   REMARKS
CHAMPAIGN      CLOUDY    33  32  96 SE13      29.73F FOG     WCI  24
DANVILLE*      LGT SNOW  32  32  99 SE10      29.72F WCI  24
RANTOUL*       LGT SNOW  34  33  96 SE8       29.73F WCI  27
MATTOON        CLOUDY    34  32  92 SE14      29.70F WCI  25
PARIS*         CLOUDY    34  33  99 SE12      29.75F FOG     WCI  25
$$

ILZ079-100>102-011800-
SOUTHWEST ILLINOIS

CITY           SKY/WX    TMP DP  RH WIND       PRES   REMARKS
ALTON          DRIZZLE   37  37 100 S8        29.71F WCI  31
BELLEVILLE     CLOUDY    39  39 100 S5        29.70F
CAHOKIA*       LGT RAIN  39  38  96 S6        29.70F FOG     WCI  35
SPARTA*        CLOUDY    40  40  97 S7        29.72F
$$

ILZ064>066-069>071-074>076-080>082-084>086-088>090-092>094-011800-
SOUTH-CENTRAL ILLINOIS

CITY           SKY/WX    TMP DP  RH WIND       PRES   REMARKS
CARBONDALE     LGT RAIN  43  41  93 S10       29.72F FOG
CAIRO*         DRIZZLE   47  47 100 S7        29.75F
EFFINGHAM*     CLOUDY    36  33  90 SE8       29.74F FOG     WCI  29
MARION         LGT RAIN  45  43  93 S8        29.74F
MT. VERNON     CLOUDY    39  36  87 SE6       29.72F WCI  35
CENTRALIA*     CLOUDY    38  36  93 SE6       29.71F FOG     WCI  33
SALEM*         CLOUDY    39  37  93 SE7       29.71F FOG     WCI  34
METROPOLIS*    DRIZZLE   46  46 100 S3        29.75F
$$

ILZ067-068-072-073-078-083-087-091-011800-
SOUTHEAST ILLINOIS

CITY           SKY/WX    TMP DP  RH WIND       PRES   REMARKS
LAWRENCEVILLE  LGT RAIN  38  36  92 SE7       29.77F FOG     WCI  33
FLORA*         CLOUDY    36  36  99 SE7       29.74F FOG     WCI  31
FAIRFIELD*     DRIZZLE   38  38  99 SE7       29.73F WCI  33
HARRISBURG*    DRIZZLE   42  42 100 S6        29.77F
ROBINSON*      DRIZZLE   36  35  96 E7        29.78F WCI  30
CARMI*         CLOUDY    43  43 100 SE6       29.76F FOG
$$

ABBREVIATIONS USED IN REMARKS
   TC - TEMPERATURE IN CELSIUS
  WCI - WIND CHILL INDEX
   HX - HEAT INDEX
  VSB - VISIBILITY
$$



USA.gov is the U.S. government's official web portal to all federal, state and local government web resources and services.